This demonstration page uses our WeatherBlox Daily Observations layout. Learn more.

Left ArrowRight Arrow

Hourly Observations for August 6, 2017

Temp ( °F °C ) Dew Point ( °F °C ) Humidity (%) Winds ( mph kmh ) Pressure ( in mb ) Visibility ( mi km ) Precip ( " mm )
12:51 am 00:51 Clear 74 23.3 53 11.7 48 48 W 3 6 29.79 1009 10 16.0934 0 0
1:51 am 01:51 Clear 73 22.8 54 12.2 51 51 Calm 29.79 1009 10 16.0934 0 0.0254
2:51 am 02:51 Clear 75 23.9 54 12.2 48 48 NW 8 13 29.78 1009 10 16.0934 0 0
3:51 am 03:51 Clear 73 22.8 56 13.3 55 55 NNW 3 6 29.8 1009 10 16.0934 0 0
4:51 am 04:51 Clear 71 21.7 56 13.3 59 59 S 5 7 29.81 1010 10 16.0934 0 0
5:51 am 05:51 Sunny 68 20 57 13.9 68 68 ESE 5 7 29.83 1010 10 16.0934 0 0
6:51 am 06:51 Sunny 74 23.3 56 13.3 54 54 E 3 6 29.84 1011 10 16.0934 0 0
7:51 am 07:51 Sunny 78 25.6 56 13.3 47 47 SE 6 9 29.85 1011 10 16.0934 0 0
8:51 am 08:51 Sunny 82 27.8 57 13.9 42 42 Calm 29.86 1011 10 16.0934 0 0
9:51 am 09:51 Sunny 88 31.1 57 13.9 35 35 NW 9 15 29.84 1011 10 16.0934 0 0
10:51 am 10:51 Sunny 90 32.2 56 13.3 32 32 NW 10 17 29.83 1010 10 16.0934 0 0
11:51 am 11:51 Sunny 92 33.3 53 11.7 27 27 W 10 17 29.81 1009 10 16.0934 0 0
12:51 pm 12:51 Sunny 93 33.9 52 11.1 25 25 NNW 12 19 29.8 1009 10 16.0934 0 0
1:51 pm 13:51 Sunny 95 35 51 10.6 23 23 W 13 20 29.79 1009 10 16.0934 0 0
2:51 pm 14:51 Sunny 96 35.6 50 10 21 21 NW 13 20 29.76 1008 10 16.0934 0 0
3:51 pm 15:51 Sunny 96 35.6 46 7.8 18 18 NW 13 20 29.73 1007 10 16.0934 0 0
4:51 pm 16:51 Sunny 95 35 47 8.3 19 19 WNW 12 19 29.73 1007 10 16.0934 0 0
5:51 pm 17:51 Sunny 94 34.4 45 7.2 18 18 WNW 17 28 29.73 1007 10 16.0934 0 0
6:51 pm 18:51 Sunny 91 32.8 45 7.2 20 20 WNW 16 26 29.73 1007 10 16.0934 0 0
7:51 pm 19:51 Clear 87 30.6 45 7.2 23 23 NW 10 17 29.75 1007 10 16.0934 0 0
8:51 pm 20:51 Clear 81 27.2 46 7.8 29 29 WNW 9 15 29.78 1009 10 16.0934 0 0
9:51 pm 21:51 Clear 77 25 48 8.9 36 36 W 7 11 29.81 1009 10 16.0934 0 0.0254
10:51 pm 22:51 Clear 77 25 47 8.3 35 35 WNW 9 15 29.81 1010 10 16.0934 0 0
11:51 pm 23:51 Clear 73 22.8 47 8.3 40 40 NNW 7 11 29.82 1010 10 16.0934 0 0

Powered by AerisWeather